Location: Gołkowice
(49.9691°N, 19.9755°E)
Time: 17:57:36
(UTC+01:00)

ISS - Visible Passes

Search period start: 16 January 2019 00:00
Search period end: 26 January 2019 00:00
Orbit: 404 x 407 km, 51.6° (Epoch: 17 January)

Date Brightness Start Highest point End Pass type
(mag) Time Alt. Az. Time Alt. Az. Time Alt. Az.
23 Jan -1.8 18:36:39 10° SSW 18:38:06 21° S 18:38:06 21° S visible
24 Jan -2.1 17:45:21 10° S 17:47:47 19° SE 17:48:29 18° ESE visible
24 Jan -0.7 19:20:37 10° WSW 19:21:11 14° WSW 19:21:11 14° WSW visible
25 Jan -1.4 16:54:41 10° SSE 16:56:03 12° SE 16:57:24 10° ESE visible
25 Jan -3.2 18:28:45 10° SW 18:31:29 47° S 18:31:29 47° S visible
